GW0719 Weather Reports


Display with metric or nautical units.
time (UTC)temp
F
wind
direction
speed
MPH
gust
MPH
rain 1hr
in
rain 24hr
in
rain mn
in
humidity
%
barometer
mb
20260905113022 52 310 0.0 0.0 0.00 0.00 0.00 10 1020.0
20260905112517 53 320 0.0 0.0 0.00 0.00 0.00 10 1019.9
20260905112013 53 296 0.0 0.0 0.00 0.00 0.00 10 1019.9
20260905111513 53 290 0.0 0.0 0.00 0.00 0.00 10 1020.3
20260905111007 53 233 0.0 0.0 0.00 0.00 0.00 10 1019.8
20260905110506 53 258 0.0 0.0 0.00 0.00 0.00 10 1019.5
20260905110001 52 297 0.0 0.0 0.00 0.00 0.00 10 1019.7
20260905105455 51 288 0.0 0.0 0.00 0.00 0.00 10 1019.0
20260905104954 50 315 0.0 0.0 0.00 0.00 0.00 10 1019.4
20260905104451 49 288 0.0 0.0 0.00 0.00 0.00 10 1019.5
20260905103945 50 307 0.0 0.0 0.00 0.00 0.00 10 1019.5
20260905103440 50 326 0.0 0.0 0.00 0.00 0.00 10 1019.1
20260905102936 50 327 0.0 0.0 0.00 0.00 0.00 10 1019.6
20260905102432 49 330 0.0 0.0 0.00 0.00 0.00 10 1019.7
20260905101927 48 340 0.0 0.0 0.00 0.00 0.00 10 1019.7
20260905101426 49 324 0.0 0.0 0.00 0.00 0.00 10 1019.6
20260905100921 51 328 0.0 0.0 0.00 0.00 0.00 10 1019.6
20260905100416 51 335 0.0 0.0 0.00 0.00 0.00 10 1019.4
20260905095916 51 321 0.0 0.0 0.00 0.00 0.00 10 1019.6
20260905095411 52 305 0.0 0.0 0.00 0.00 0.00 10 1019.5
20260905094910 52 339 0.0 0.0 0.00 0.00 0.00 10 1019.6
20260905094406 52 313 0.0 0.0 0.00 0.00 0.00 10 1019.4
20260905093905 52 356 0.0 0.0 0.00 0.00 0.00 10 1019.1
20260905093401 52 347 0.0 0.0 0.00 0.00 0.00 10 1019.2
20260905092856 52 36 0.0 0.0 0.00 0.00 0.00 10 1019.1
20260905092356 52 41 0.0 0.0 0.00 0.00 0.00 10 1018.9
20260905091851 52 40 0.0 0.0 0.00 0.00 0.00 10 1019.0
20260905091346 53 22 0.0 0.0 0.00 0.00 0.00 10 1018.9
20260905090845 53 55 0.0 0.0 0.00 0.00 0.00 10 1019.0
20260905090341 53 57 0.0 0.0 0.00 0.00 0.00 10 1018.9
20260905085840 53 56 0.0 0.0 0.00 0.00 0.00 10 1018.7
20260905085339 54 47 0.0 0.0 0.00 0.00 0.00 10 1018.9
20260905084835 55 38 0.0 0.0 0.00 0.00 0.00 10 1018.8
20260905084334 54 44 0.0 0.0 0.00 0.00 0.00 10 1018.5
20260905083829 54 48 0.0 0.0 0.00 0.00 0.00 10 1018.5
20260905083325 53 37 0.0 0.0 0.00 0.00 0.00 10 1018.1
20260905082820 53 48 0.0 0.0 0.00 0.00 0.00 10 1018.4
20260905082317 53 50 0.0 0.0 0.00 0.00 0.00 10 1018.4
20260905081812 53 51 0.0 0.0 0.00 0.00 0.00 10 1018.3
20260905081307 52 35 0.0 0.0 0.00 0.00 0.00 10 1018.5
20260905080805 53 50 0.0 0.0 0.00 0.00 0.00 10 1018.9
20260905080300 54 50 0.0 0.0 0.00 0.00 0.00 10 1019.4
20260905075758 53 3 0.0 0.0 0.00 0.00 0.00 10 1019.0
20260905075253 53 325 0.0 0.0 0.00 0.00 0.00 10 1019.2
20260905074751 53 305 0.0 0.0 0.00 0.00 0.00 10 1019.4
20260905074247 54 308 0.0 1.0 0.00 0.00 0.00 10 1019.5
20260905073737 53 330 0.0 0.0 0.00 0.00 0.00 10 1019.4
20260905073233 54 336 0.0 0.0 0.00 0.00 0.00 10 1019.1
20260905072732 56 2 0.0 0.0 0.00 0.00 0.00 10 1019.5
20260905072227 56 10 0.0 0.0 0.00 0.00 0.00 10 1019.7
20260905071724 56 26 0.0 0.0 0.00 0.00 0.00 10 1019.1
20260905071220 56 20 0.0 0.0 0.00 0.00 0.00 10 1019.0
20260905070714 55 17 0.0 0.0 0.00 0.00 0.00 10 1018.9
20260905070211 54 17 0.0 0.0 0.00 0.00 0.00 10 1018.8
20260905065709 54 51 0.0 0.0 0.00 0.00 0.00 10 1018.7
20260905065203 54 33 0.0 0.0 0.00 0.00 0.00 10 1018.8
20260905064659 53 47 0.0 0.0 0.00 0.00 0.00 10 1018.9
20260905064154 54 46 0.0 0.0 0.00 0.00 0.00 10 1018.9
20260905063653 56 24 0.0 0.0 0.00 0.00 0.00 10 1018.8
20260905063149 57 321 1.0 1.0 0.00 0.00 0.00 10 1018.9
20260905062645 58 324 0.0 1.0 0.00 0.00 0.00 10 1019.1
20260905062144 58 340 0.0 0.0 0.00 0.00 0.00 10 1018.8
20260905061638 56 0 0.0 0.0 0.00 0.00 0.00 10 1018.5
20260905061138 56 338 0.0 0.0 0.00 0.00 0.00 10 1018.6
20260905060634 57 347 0.0 0.0 0.00 0.00 0.00 10 1018.1
20260905060130 57 2 0.0 0.0 0.00 0.00 0.00 10 1018.1
20260905055628 57 17 0.0 0.0 0.00 0.00 0.00 10 1018.4
20260905055124 57 27 0.0 0.0 0.00 0.00 0.00 10 1018.7
20260905054620 57 30 0.0 0.0 0.00 0.00 0.00 10 1018.3
20260905054115 56 353 0.0 0.0 0.00 0.00 0.00 10 1018.1
20260905053615 55 6 0.0 0.0 0.00 0.00 0.00 10 1018.4
20260905053110 56 48 0.0 0.0 0.00 0.00 0.00 10 1018.4
20260905052609 56 40 0.0 0.0 0.00 0.00 0.00 10 1018.4
20260905052104 56 46 0.0 0.0 0.00 0.00 0.00 10 1018.0
20260905051559 58 42 0.0 0.0 0.00 0.00 0.00 10 1018.6
20260905051055 59 36 0.0 0.0 0.00 0.00 0.00 10 1018.6
20260905050546 59 38 0.0 0.0 0.00 0.00 0.00 10 1018.5
20260905050043 59 15 0.0 0.0 0.00 0.00 0.00 10 1018.5
20260905045542 59 8 0.0 0.0 0.00 0.00 0.00 10 1018.5
20260905045033 59 17 0.0 0.0 0.00 0.00 0.00 10 1018.3
20260905044533 59 27 0.0 0.0 0.00 0.00 0.00 10 1018.0
20260905044032 59 42 0.0 0.0 0.00 0.00 0.00 10 1018.0
20260905043531 60 25 0.0 0.0 0.00 0.00 0.00 10 1018.1
20260905043022 60 49 0.0 0.0 0.00 0.00 0.00 10 1018.4
20260905042520 61 53 0.0 0.0 0.00 0.00 0.00 10 1018.9
20260905042016 61 50 0.0 0.0 0.00 0.00 0.00 10 1018.7
20260905041511 61 40 0.0 0.0 0.00 0.00 0.00 10 1018.3
20260905041007 61 30 0.0 0.0 0.00 0.00 0.00 10 1018.3
20260905040506 61 13 0.0 0.0 0.00 0.00 0.00 10 1017.6
20260905040005 62 358 0.0 0.0 0.00 0.00 0.00 10 1017.4
20260905035500 61 6 0.0 0.0 0.00 0.00 0.00 10 1017.3
20260905034958 62 1 0.0 0.0 0.00 0.00 0.00 10 1017.3
20260905034458 61 15 0.0 0.0 0.00 0.00 0.00 10 1017.0
20260905033956 61 33 0.0 0.0 0.00 0.00 0.00 10 1017.2
20260905033451 62 31 0.0 0.0 0.00 0.00 0.00 10 1017.0
20260905032946 62 23 0.0 1.0 0.00 0.00 0.00 10 1017.0
20260905032442 63 38 0.0 2.0 0.00 0.00 0.00 10 1017.3
20260905031936 63 26 0.0 1.0 0.00 0.00 0.00 10 1017.4
20260905031432 63 37 0.0 1.0 0.00 0.00 0.00 10 1017.3
20260905030927 63 359 0.0 0.0 0.00 0.00 0.00 10 1017.0
20260905030423 63 359 0.0 0.0 0.00 0.00 0.00 10 1016.9
20260905025922 63 24 1.0 1.0 0.00 0.00 0.00 10 1016.8
20260905025417 63 16 1.0 2.0 0.00 0.00 0.00 10 1017.0
20260905024914 63 2 0.0 1.0 0.00 0.00 0.00 10 1016.8
20260905024414 63 352 0.0 0.0 0.00 0.00 0.00 10 1016.7
20260905023909 63 24 0.0 1.0 0.00 0.00 0.00 10 1016.4
20260905023405 64 5 0.0 2.0 0.00 0.00 0.00 10 1016.4
20260905022903 63 10 0.0 1.0 0.00 0.00 0.00 10 1016.3
20260905022353 64 23 0.0 1.0 0.00 0.00 0.00 10 1016.3
20260905021848 64 26 0.0 1.0 0.00 0.00 0.00 10 1016.4
20260905021343 64 357 1.0 2.0 0.00 0.00 0.00 10 1016.1
20260905020838 64 351 1.0 2.0 0.00 0.00 0.00 10 1015.5
20260905020332 64 20 1.0 2.0 0.00 0.00 0.00 10 1015.8
20260905015832 64 13 0.0 1.0 0.00 0.00 0.00 10 1015.5
20260905015331 65 18 0.0 0.0 0.00 0.00 0.00 10 1015.3
20260905014825 64 23 1.0 3.0 0.00 0.00 0.00 10 1015.1
20260905014321 64 352 0.0 0.0 0.00 0.00 0.00 10 1015.2
20260905013816 64 36 0.0 1.0 0.00 0.00 0.00 10 1015.3
20260905013312 65 33 0.0 0.0 0.00 0.00 0.00 10 1015.3
20260905012807 65 20 0.0 0.0 0.00 0.00 0.00 10 1014.7
20260905012306 65 72 0.0 0.0 0.00 0.00 0.00 10 1015.0
20260905011759 66 351 0.0 2.0 0.00 0.00 0.00 10 1014.8
20260905011254 66 7 0.0 1.0 0.00 0.00 0.00 10 1014.6
20260905010749 66 12 0.0 1.0 0.00 0.00 0.00 10 1014.7
20260905010244 66 12 2.0 3.0 0.00 0.00 0.00 10 1015.0
20260905005741 66 5 0.0 0.0 0.00 0.00 0.00 10 1015.2
20260905005237 66 0 0.0 0.0 0.00 0.00 0.00 10 1015.1
20260905004736 66 13 0.0 1.0 0.00 0.00 0.00 10 1015.0
20260905004231 67 15 0.0 1.0 0.00 0.00 0.00 10 1015.2
20260905003731 67 344 0.0 0.0 0.00 0.00 0.00 10 1014.8
20260905003227 67 1 0.0 0.0 0.00 0.00 0.00 10 1014.8
20260905002723 67 18 0.0 0.0 0.00 0.00 0.00 10 1014.8
20260905002222 67 11 1.0 1.0 0.00 0.00 0.00 10 1015.0
20260905001723 68 351 1.0 5.0 0.00 0.00 0.00 10 1015.0
20260905001222 68 20 0.0 1.0 0.00 0.00 0.00 10 1015.1
20260905000717 68 20 0.0 0.0 0.00 0.00 0.00 10 1014.8
20260905000213 68 9 0.0 2.0 0.00 0.00 0.00 10 1015.0
20260904235708 69 15 0.0 2.0 0.00 0.00 0.00 10 1015.4
20260904235203 68 10 0.0 3.0 0.00 0.00 0.00 10 1015.3
20260904234657 68 11 2.0 3.0 0.00 0.00 0.00 10 1015.3
20260904234153 68 15 2.0 3.0 0.00 0.00 0.00 10 1015.3
20260904233648 68 358 1.0 2.0 0.00 0.00 0.00 10 1015.2
20260904233144 70 23 0.0 3.0 0.00 0.00 0.00 10 1015.3
20260904232641 70 352 0.0 1.0 0.00 0.00 0.00 10 1015.4
20260904232136 69 358 0.0 5.0 0.00 0.00 0.00 10 1015.1
20260904231632 69 352 1.0 3.0 0.00 0.00 0.00 10 1014.8
20260904231127 70 1 0.0 5.0 0.00 0.00 0.00 10 1014.8
20260904230627 69 12 0.0 3.0 0.00 0.00 0.00 10 1015.2
20260904230122 69 347 2.0 3.0 0.00 0.00 0.00 10 1014.8
20260904225620 69 7 0.0 3.0 0.00 0.00 0.00 10 1014.7
20260904225115 69 348 2.0 3.0 0.00 0.00 0.00 10 1014.8
20260904224609 70 354 2.0 5.0 0.00 0.00 0.00 10 1014.5
20260904224104 71 25 0.0 3.0 0.00 0.00 0.00 10 1014.7
20260904223603 71 20 1.0 2.0 0.00 0.00 0.00 10 1014.2
20260904223059 73 5 1.0 3.0 0.00 0.00 0.00 10 1014.2
20260904222554 73 327 0.0 0.0 0.00 0.00 0.00 10 1014.4
20260904222044 73 311 1.0 3.0 0.00 0.00 0.00 10 1014.2
20260904221538 73 334 0.0 2.0 0.00 0.00 0.00 10 1014.1
20260904221033 73 318 0.0 3.0 0.00 0.00 0.00 10 1014.3
20260904220533 73 315 0.0 2.0 0.00 0.00 0.00 10 1014.1
20260904220029 73 326 0.0 2.0 0.00 0.00 0.00 10 1014.0
20260904215528 73 7 1.0 2.0 0.00 0.00 0.00 10 1014.3
20260904215024 73 328 1.0 1.0 0.00 0.00 0.00 10 1014.1
20260904214519 73 304 0.0 3.0 0.00 0.00 0.00 10 1013.9
20260904214015 74 328 0.0 1.0 0.00 0.00 0.00 10 1013.9
20260904213513 73 27 0.0 2.0 0.00 0.00 0.00 10 1014.0
20260904213010 72 23 0.0 0.0 0.00 0.00 0.00 10 1014.0
20260904212509 72 31 0.0 0.0 0.00 0.00 0.00 10 1013.6
20260904212004 72 50 0.0 0.0 0.00 0.00 0.00 10 1013.6
20260904211458 72 7 0.0 0.0 0.00 0.00 0.00 10 1013.3
20260904210954 71 43 0.0 0.0 0.00 0.00 0.00 10 1013.5
20260904210453 72 37 0.0 0.0 0.00 0.00 0.00 10 1013.2
20260904205949 71 356 0.0 0.0 0.00 0.00 0.00 10 1013.3
20260904205444 71 37 0.0 0.0 0.00 0.00 0.00 10 1013.3
20260904204941 71 1 0.0 0.0 0.00 0.00 0.00 10 1013.2
20260904204437 70 44 0.0 0.0 0.00 0.00 0.00 10 1013.1
20260904203933 70 38 0.0 0.0 0.00 0.00 0.00 10 1013.0
20260904203429 70 22 0.0 1.0 0.00 0.00 0.00 10 1013.3
20260904202925 70 38 0.0 0.0 0.00 0.00 0.00 10 1012.9
20260904202420 71 12 0.0 0.0 0.00 0.00 0.00 10 1013.0
20260904201916 71 18 0.0 0.0 0.00 0.00 0.00 10 1012.7
20260904201411 71 335 0.0 0.0 0.00 0.00 0.00 10 1012.7
20260904200907 72 30 0.0 0.0 0.00 0.00 0.00 10 1013.0
20260904200405 71 43 0.0 0.0 0.00 0.00 0.00 10 1012.9
20260904195900 71 37 0.0 0.0 0.00 0.00 0.00 10 1012.6
20260904195358 70 35 0.0 0.0 0.00 0.00 0.00 10 1012.5
20260904194853 72 40 0.0 0.0 0.00 0.00 0.00 10 1012.2
20260904194352 72 91 0.0 1.0 0.00 0.00 0.00 10 1012.3
20260904193848 72 358 0.0 1.0 0.00 0.00 0.00 10 1012.2
20260904193343 71 54 0.0 0.0 0.00 0.00 0.00 10 1012.2
20260904192838 71 24 0.0 0.0 0.00 0.00 0.00 10 1012.0
20260904192334 71 20 0.0 1.0 0.00 0.00 0.00 10 1012.1
20260904191830 71 47 0.0 0.0 0.00 0.00 0.00 10 1012.0
20260904191327 71 38 0.0 0.0 0.00 0.00 0.00 10 1011.9
20260904190823 71 52 0.0 0.0 0.00 0.00 0.00 10 1011.8
20260904190319 71 54 0.0 0.0 0.00 0.00 0.00 10 1011.8
20260904185814 72 58 0.0 0.0 0.00 0.00 0.00 10 1011.8
20260904185310 71 59 0.0 0.0 0.00 0.00 0.00 10 1011.6
20260904184809 71 37 0.0 0.0 0.00 0.00 0.00 10 1011.9
20260904184304 70 36 0.0 0.0 0.00 0.00 0.00 10 1012.1
20260904183759 69 345 0.0 0.0 0.00 0.00 0.00 10 1011.6
20260904183254 69 38 0.0 0.0 0.00 0.00 0.00 10 1011.9
20260904182750 70 207 0.0 0.0 0.00 0.00 0.00 10 1011.6
20260904182244 70 324 0.0 0.0 0.00 0.00 0.00 10 1011.6
20260904181740 69 44 0.0 0.0 0.00 0.00 0.00 10 1011.6
20260904181239 70 19 0.0 0.0 0.00 0.00 0.00 10 1011.6
20260904180735 69 30 0.0 1.0 0.00 0.00 0.00 10 1011.6
20260904180231 69 224 0.0 0.0 0.00 0.00 0.00 10 1011.8
20260904175729 68 89 0.0 0.0 0.00 0.00 0.00 10 1011.6
20260904175228 68 133 0.0 0.0 0.00 0.00 0.00 10 1011.5
20260904174723 68 192 0.0 0.0 0.00 0.00 0.00 10 1011.4
20260904174219 68 60 0.0 0.0 0.00 0.00 0.00 10 1011.2
20260904173714 68 120 0.0 0.0 0.00 0.00 0.00 10 1011.4
20260904173209 68 136 0.0 0.0 0.00 0.00 0.00 10 1011.3
20260904172705 67 98 0.0 0.0 0.00 0.00 0.00 10 1011.5
20260904172204 67 237 0.0 0.0 0.00 0.00 0.00 10 1011.5
20260904171700 67 257 0.0 0.0 0.00 0.00 0.00 10 1011.4
20260904171155 66 223 0.0 0.0 0.00 0.00 0.00 10 1011.3
20260904170651 67 242 0.0 0.0 0.00 0.00 0.00 10 1011.2
20260904170147 67 280 0.0 0.0 0.00 0.00 0.00 10 1011.4
20260904165645 67 252 0.0 1.0 0.00 0.00 0.00 10 1011.3
20260904165144 67 258 0.0 0.0 0.00 0.00 0.00 10 1011.3
20260904164640 67 338 0.0 0.0 0.00 0.00 0.00 10 1011.3
20260904164135 67 356 0.0 0.0 0.00 0.00 0.00 10 1011.2
20260904163630 67 318 0.0 0.0 0.00 0.00 0.00 10 1011.0
20260904163120 67 44 0.0 0.0 0.00 0.00 0.00 10 1011.1
20260904162620 66 26 0.0 0.0 0.00 0.00 0.00 10 1011.0
20260904162115 66 313 0.0 1.0 0.00 0.00 0.00 10 1011.0
20260904161610 66 33 0.0 1.0 0.00 0.00 0.00 10 1010.9
20260904161105 64 41 0.0 1.0 0.00 0.00 0.00 10 1010.8
20260904160601 64 25 0.0 0.0 0.00 0.00 0.00 10 1011.0
20260904160057 64 48 0.0 0.0 0.00 0.00 0.00 10 1010.8
20260904155556 64 45 0.0 0.0 0.00 0.00 0.00 10 1010.4
20260904155050 64 42 0.0 0.0 0.00 0.00 0.00 10 1010.5
20260904154544 63 38 0.0 0.0 0.00 0.00 0.00 10 1010.2
20260904154038 63 43 0.0 0.0 0.00 0.00 0.00 10 1010.2
20260904153537 63 58 0.0 0.0 0.00 0.00 0.00 10 1009.9
20260904153034 62 42 0.0 0.0 0.00 0.00 0.00 10 1010.0
20260904152530 63 50 0.0 0.0 0.00 0.00 0.00 10 1010.1
20260904152025 63 47 0.0 0.0 0.00 0.00 0.00 10 1009.9
20260904151520 63 52 0.0 0.0 0.00 0.00 0.00 10 1009.6
20260904151014 63 47 0.0 0.0 0.00 0.00 0.00 10 1009.7
20260904150514 62 47 0.0 0.0 0.00 0.00 0.00 10 1009.8
20260904150009 61 27 0.0 0.0 0.00 0.00 0.00 10 1009.8
20260904145503 61 27 0.0 1.0 0.00 0.00 0.00 10 1009.7
20260904144958 60 42 0.0 2.0 0.00 0.00 0.00 10 1009.3
20260904144454 58 30 0.0 0.0 0.00 0.00 0.00 10 1009.4
20260904143950 57 9 0.0 0.0 0.00 0.00 0.00 10 1010.0
20260904143446 57 31 0.0 0.0 0.00 0.00 0.00 10 1010.1
20260904142943 57 42 0.0 1.0 0.00 0.00 0.00 10 1009.7
20260904142439 57 36 0.0 0.0 0.00 0.00 0.00 10 1009.6
20260904141938 57 10 0.0 1.0 0.00 0.00 0.00 10 1009.6
20260904141433 56 48 0.0 1.0 0.00 0.00 0.00 10 1009.7
20260904140931 56 38 0.0 0.0 0.00 0.00 0.00 10 1009.8
20260904140430 55 46 0.0 0.0 0.00 0.00 0.00 10 1009.8
20260904135929 55 55 0.0 0.0 0.00 0.00 0.00 10 1009.9
20260904135429 55 46 0.0 0.0 0.00 0.00 0.00 10 1009.9
20260904134925 55 38 0.0 0.0 0.00 0.00 0.00 10 1010.0
20260904134425 54 29 0.0 1.0 0.00 0.00 0.00 10 1010.1
20260904133920 54 31 0.0 1.0 0.00 0.00 0.00 10 1010.0
20260904133414 53 33 0.0 0.0 0.00 0.00 0.00 10 1010.0
20260904132910 53 41 0.0 0.0 0.00 0.00 0.00 10 1010.1
20260904132405 52 44 0.0 0.0 0.00 0.00 0.00 10 1010.1
20260904131905 52 42 0.0 0.0 0.00 0.00 0.00 10 1009.9
20260904131400 52 44 0.0 0.0 0.00 0.00 0.00 10 1009.8
20260904130855 51 34 0.0 0.0 0.00 0.00 0.00 10 1009.6
20260904130355 51 49 0.0 0.0 0.00 0.00 0.00 10 1009.7
20260904125850 50 47 0.0 0.0 0.00 0.00 0.00 10 1009.8
20260904125346 51 53 0.0 0.0 0.00 0.00 0.00 10 1009.7
20260904124845 51 42 0.0 0.0 0.00 0.00 0.00 10 1009.7
20260904124342 51 36 0.0 0.0 0.00 0.00 0.00 10 1009.4
20260904123836 52 37 0.0 0.0 0.00 0.00 0.00 10 1009.4
20260904123332 52 31 0.0 0.0 0.00 0.00 0.00 10 1009.3
20260904122827 53 45 0.0 0.0 0.00 0.00 0.00 10 1009.7
20260904122327 53 38 0.0 0.0 0.00 0.00 0.00 10 1009.7
20260904121821 53 35 0.0 0.0 0.00 0.00 0.00 10 1009.7
20260904121318 53 34 0.0 0.0 0.00 0.00 0.00 10 1009.7
20260904120814 52 30 0.0 0.0 0.00 0.00 0.00 10 1009.8
20260904120309 51 38 0.0 0.0 0.00 0.00 0.00 10 1009.7
20260904115804 52 42 0.0 0.0 0.00 0.00 0.00 10 1009.7
20260904115300 52 35 0.0 0.0 0.00 0.00 0.00 10 1009.8
20260904114754 53 43 0.0 0.0 0.00 0.00 0.00 10 1009.6
20260904114254 53 39 0.0 0.0 0.00 0.00 0.00 10 1009.8
20260904113749 53 45 0.0 0.0 0.00 0.00 0.00 10 1009.6